Regional Weather Roundup
Issued by NWS Northern Indiana

Home | Current Version | Previous Version | Graphics & Text | Print | Product List | Glossary On
Versions: 1 2 3 4 5 6 7 8 9 10 11 12 13 14 15 16 17 18 19 20 21 22 23 24 25 26 27 28 29 30 31 32 33 34 35 36 37 38 39 40 41 42 43 44 45 46 47 48 49 50
000
ASUS43 KIWX 181111
RWRIWX

KIWX WEATHER ROUNDUP
NATIONAL WEATHER SERVICE NORTHERN INDIANA
700 AM EDT WED OCT 18 2017

NOTE: "FAIR" INDICATES FEW OR NO CLOUDS BELOW 12,000 FEET WITH NO
SIGNIFICANT WEATHER AND/OR OBSTRUCTIONS TO VISIBILITY.

* THESE STATIONS ARE NOT UNDER NWS QUALITY CONTROL. THEY ALSO MAY NOT
  REPORT WEATHER SUCH AS PRECIPITATION OR FOG.

INZ001>027-181200-
NORTHERN INDIANA

CITY           SKY/WX    TMP DP  RH WIND       PRES   REMARKS
GARY*          CLEAR     54  39  58 S12       30.20R
VALPARAISO     CLEAR     46  40  79 S6        30.22R
MICHIGAN CITY* CLEAR     48  39  71 S7        30.22R
LAPORTE*       PTCLDY    42  39  89 CALM      30.23R
KNOX*          CLEAR     45  39  81 S6        30.23R
SOUTH BEND     CLEAR     44  40  85 S7        30.23R
ELKHART*       CLEAR     46  39  76 SW5       30.23
GOSHEN         CLEAR     47  38  71 S10       30.23S
MONTICELLO*    CLEAR     48  40  73 S6        30.23S
LOGANSPORT*    PTCLDY    39  36  87 S3        30.26R
WARSAW*        CLEAR     45  39  81 CALM      30.25S
AUBURN*        CLEAR     45  39  81 S5        30.26S
FORT WAYNE     CLEAR     40  36  86 S6        30.27R
HUNTINGTON*    CLEAR     43  40  88 CALM      30.26S
PERU/GRISSOM   CLEAR     42  39  87 S5        30.24S

$$
INZ028>050-181200-
CENTRAL INDIANA

CITY           SKY/WX    TMP DP  RH WIND       PRES   REMARKS
LAFAYETTE      CLEAR     40  39  97 CALM      30.25R
KOKOMO*        CLEAR     41  39  93 S7        30.26S
MUNCIE*        CLEAR     46  40  79 S3        30.27S
INDIANAPOLIS   PTCLDY    45  40  82 E5        30.27R

$$
MIZ043>046-050>051-056>058-064>065-071>073-077>080-181200-
SOUTHWEST LOWER MICHIGAN

CITY           SKY/WX    TMP DP  RH WIND       PRES   REMARKS
BATTLE CREEK   CLEAR     47  41  80 S9        30.22R
BENTON HARBOR  CLEAR     50  39  66 S7        30.19S
COLDWATER*     CLEAR     47  38  72 CALM      30.24R
HILLSDALE*     CLEAR     45  37  76 S5        30.24R
HOLLAND        CLEAR     48  41  76 S8        30.17S
GRAND RAPIDS   CLEAR     51  41  68 S10       30.17S
KALAMAZOO      CLEAR     47  39  74 S6        30.22R
STURGIS*       CLEAR     43  38  85 SW6       30.23R
THREE RIVERS*  FAIR      44  40  88 CALM      30.23S

$$
OHZ001>008-015>018-024>025-181200-
NORTHWEST OHIO

CITY           SKY/WX    TMP DP  RH WIND       PRES   REMARKS
WAUSEON*       FAIR      39  37  93 CALM      30.26R
DEFIANCE       CLEAR     43  37  79 S3        30.27R
FINDLAY        CLEAR     43  37  79 S6        30.27R
TOLEDO EXPRESS CLEAR     41  40  96 CALM      30.27R
TOLEDO METCALF CLEAR     42  37  82 S6        30.28R
LIMA           CLEAR     45  40  82 S8        30.28R

$$
AND FOR LAKE MICHIGAN COASTAL AND OPEN LAKE BUOY OBSERVATIONS

STATION/POSITION TEMP    WIND        PRES    VSBY  WAVE
                 AIR SEA DIR/SP/G                  HT/PER
                 (F)     (DEG/KT/KT) (MB)    (MI)  (FT/S)
CALUMET HARBOR    50     170/  7/ 10 1021.2R
MICHIGAN CITY     51     160/ 14/ 16   N/A
BURNS HARBOR      51     180/ 11/ 15 1023.0R
SAINT JOSEPH      49     160/  4/  9 1022.4
SOUTH LAKE BUOY   60 61  230/ 19/ 23 1020.4S         4/ 5
4 MI NW BRIDGMAN  54 58  200/ 14/ 17 1023.1          3/ 4
MICHIGAN CITY     52 57  190/ 12/ 16   N/A           2/ 3

$$
&&




USA.gov is the U.S. government's official web portal to all federal, state and local government web resources and services.